sat.trackr.live / text

‹ back to catalog

STARLINK-31986

NORAD 60019 · 2024-111D

PAYLOAD ACTIVE UNKNOWN

§ Identity

Operator
Country
US
Launch date
2024-06-08
Launch site
AFETR
Launch vehicle
Mass (kg)
RCS (m²)

Purposes: comms

External: N2YO · Heavens-Above · Gunter

§ Orbital elements

Epoch: 2026-05-25T02:46:04.842912Z

Period
94.11 min
Inclination
53.1606°
Eccentricity
0.0001161
Mean motion
15.30193522 rev/d
Perigee alt
474.4 km
Apogee alt
476.0 km
Semi-major
6,853.4 km
B*
1.7026e-5
RAAN
80.7022°
Arg perigee
87.1053°
Mean anomaly
273.0081°
Rev number
11,074

§ Raw data

STARLINK-319861 60019U 24111D   26145.11533383  .00000145  00000+0  17026-4 0  99992 60019  53.1606  80.7022 0001161  87.1053 273.0081 15.30193522110746

JSON: /api/v1/satellites/60019 · /tle

For live sub-satellite position, see the globe view (requires WebGL).

§ Visibility from observer

Set your observer location to see the next 7 days of passes ≥ 10°. The values pass through the URL so the page stays shareable.

No JS? Fill the form by hand. The geolocation button needs JavaScript.